sat.trackr.live / text

‹ back to catalog

STARLINK-3071

NORAD 49147 · 2021-082T

PAYLOAD ACTIVE UNKNOWN

§ Identity

Operator
Country
US
Launch date
2021-09-14
Launch site
AFWTR
Launch vehicle
Mass (kg)
RCS (m²)

Purposes: comms

External: N2YO · Heavens-Above · Gunter

§ Orbital elements

Epoch: 2026-09-20T01:38:35.401920Z

Period
96.11 min
Inclination
69.9984°
Eccentricity
0.0002685
Mean motion
14.98325008 rev/d
Perigee alt
570.2 km
Apogee alt
573.9 km
Semi-major
6,950.2 km
B*
3.8610e-5
RAAN
124.3598°
Arg perigee
274.8536°
Mean anomaly
85.2317°
Rev number
27,608

§ Raw data

STARLINK-30711 49147U 21082T   26263.06846530  .00000368  00000+0  38610-4 0  99972 49147  69.9984 124.3598 0002685 274.8536  85.2317 14.98325008276089

JSON: /api/v1/satellites/49147 · /tle

For live sub-satellite position, see the globe view (requires WebGL).

§ Visibility from observer

Set your observer location to see the next 7 days of passes ≥ 10°. The values pass through the URL so the page stays shareable.

No JS? Fill the form by hand. The geolocation button needs JavaScript.